Location: Bijele Vode
(45.2833°N, 16.2000°E)
Time: 20:04:42
(UTC+00:00)

Cosmos 1842 - Pass Details

Date: 18 September 2020
Orbit: 521 x 536 km, 82.5° (Epoch: 27 October)

Event Time Altitude Azimuth Distance (km) Brightness Sun altitude
Rises 17:26:29 0° 355° (N) 2,662 7.0 -5.5°
Reaches altitude 10° 17:28:40 10° 360° (N) 1,769 6.0 -5.9°
Maximum altitude 17:32:29 56° 79° (ENE) 631 3.3 -6.5°
Drops below altitude 10° 17:36:16 10° 158° (SSE) 1,757 5.6 -7.2°
Sets 17:38:26 0° 163° (SSE) 2,642 6.5 -7.6°
